Location: Caltech
(34.1382°N, 118.1253°W)
Time: 03:12:23
(UTC-07:00)

Cosmos 1943 Rocket - Visible Passes

Search period start: 21 August 2017 00:00
Search period end: 31 August 2017 00:00
Orbit: 814 x 842 km, 71.0° (Epoch: 21 August)

Date Brightness Start Highest point End Pass type
(mag) Time Alt. Az. Time Alt. Az. Time Alt. Az.
21 Aug 4.6 02:14:25 10° NNW 02:15:16 15° NNW 02:15:16 15° NNW visible
22 Aug 4.7 01:55:17 10° NNW 01:55:58 14° NNW 01:55:58 14° NNW visible
23 Aug 4.8 01:36:10 10° NNW 01:36:43 13° N 01:36:43 13° N visible
24 Aug 4.9 01:17:03 10° N 01:17:33 12° N 01:17:33 12° N visible
25 Aug 5.0 00:57:58 10° N 00:58:24 12° N 00:58:24 12° N visible
26 Aug 5.0 00:38:55 10° N 00:39:18 12° N 00:39:18 12° N visible
27 Aug 5.0 00:19:52 10° N 00:20:15 12° N 00:20:15 12° N visible
28 Aug 5.0 00:00:51 10° N 00:01:13 12° N 00:01:13 12° N visible
28 Aug 4.9 23:41:51 10° N 23:42:13 11° N 23:42:13 11° N visible
29 Aug 4.9 23:22:54 10° N 23:23:15 11° NNE 23:23:15 11° NNE visible
30 Aug 4.8 23:04:00 10° NNE 23:04:19 11° NNE 23:04:19 11° NNE visible
